TimeCDT,TemperatureF,Dew PointF,Humidity,Sea Level PressureIn,VisibilityMPH,Wind Direction,Wind SpeedMPH,Gust SpeedMPH,PrecipitationIn,Events,Conditions,WindDirDegrees,DateUTC
12:15 AM,80.6,66.2,61,30.01,10.0,North,-9999.0,-,N/A,,Scattered Clouds,0,2013-08-23 05:15:00
12:35 AM,80.6,66.2,61,30.01,10.0,North,-9999.0,-,N/A,,Mostly Cloudy,0,2013-08-23 05:35:00
12:55 AM,80.6,68.0,65,30.01,10.0,North,-9999.0,-,N/A,,Overcast,0,2013-08-23 05:55:00
1:15 AM,80.6,66.2,61,30.01,10.0,North,-9999.0,-,N/A,,Mostly Cloudy,0,2013-08-23 06:15:00
1:35 AM,78.8,68.0,69,30.01,10.0,North,-9999.0,-,N/A,,Mostly Cloudy,0,2013-08-23 06:35:00
1:55 AM,78.8,68.0,69,30.00,10.0,North,-9999.0,-,N/A,,Mostly Cloudy,0,2013-08-23 06:55:00
2:15 AM,78.8,68.0,69,30.01,10.0,North,-9999.0,-,N/A,,Scattered Clouds,0,2013-08-23 07:15:00
2:35 AM,78.8,68.0,69,30.00,10.0,North,-9999.0,-,N/A,,Mostly Cloudy,0,2013-08-23 07:35:00
2:55 AM,78.8,68.0,69,30.00,10.0,North,-9999.0,-,N/A,,Scattered Clouds,0,2013-08-23 07:55:00
3:15 AM,78.8,68.0,69,30.00,10.0,North,-9999.0,-,N/A,,Clear,0,2013-08-23 08:15:00
3:35 AM,77.0,68.0,74,30.00,10.0,North,-9999.0,-,N/A,,Clear,0,2013-08-23 08:35:00
3:55 AM,77.0,68.0,74,30.00,10.0,North,-9999.0,-,N/A,,Clear,0,2013-08-23 08:55:00
4:15 AM,75.2,68.0,78,30.01,10.0,North,-9999.0,-,N/A,,Clear,0,2013-08-23 09:15:00
4:35 AM,77.0,68.0,74,30.01,10.0,North,-9999.0,-,N/A,,Clear,0,2013-08-23 09:35:00
4:55 AM,73.4,68.0,83,30.00,10.0,North,-9999.0,-,N/A,,Clear,0,2013-08-23 09:55:00
5:15 AM,73.4,68.0,83,30.01,10.0,North,-9999.0,-,N/A,,Clear,0,2013-08-23 10:15:00
5:35 AM,75.2,68.0,78,30.01,10.0,North,-9999.0,-,N/A,,Scattered Clouds,0,2013-08-23 10:35:00
5:55 AM,75.2,68.0,78,30.02,10.0,North,-9999.0,-,N/A,,Mostly Cloudy,0,2013-08-23 10:55:00
6:15 AM,75.2,68.0,78,30.02,10.0,North,-9999.0,-,N/A,,Mostly Cloudy,0,2013-08-23 11:15:00
6:35 AM,73.4,68.0,83,30.02,10.0,North,-9999.0,-,N/A,,Scattered Clouds,0,2013-08-23 11:35:00
6:55 AM,73.4,68.0,83,30.02,10.0,North,-9999.0,-,N/A,,Clear,0,2013-08-23 11:55:00
7:15 AM,73.4,68.0,83,30.03,10.0,North,-9999.0,-,N/A,,Clear,0,2013-08-23 12:15:00
7:35 AM,73.4,68.0,83,30.03,10.0,North,-9999.0,-,N/A,,Scattered Clouds,0,2013-08-23 12:35:00
7:55 AM,77.0,68.0,74,30.04,10.0,North,-9999.0,-,N/A,,Mostly Cloudy,0,2013-08-23 12:55:00
8:15 AM,80.6,68.0,65,30.04,10.0,North,-9999.0,-,N/A,,Scattered Clouds,0,2013-08-23 13:15:00
8:35 AM,80.6,68.0,65,30.04,10.0,North,-9999.0,-,N/A,,Scattered Clouds,0,2013-08-23 13:35:00
8:55 AM,82.4,68.0,62,30.04,10.0,North,-9999.0,-,N/A,,Scattered Clouds,0,2013-08-23 13:55:00
9:15 AM,84.2,68.0,58,30.04,10.0,North,-9999.0,-,N/A,,Clear,0,2013-08-23 14:15:00
9:35 AM,86.0,68.0,55,30.04,10.0,North,-9999.0,-,N/A,,Clear,0,2013-08-23 14:35:00
9:55 AM,87.8,68.0,52,30.04,10.0,North,-9999.0,-,N/A,,Clear,0,2013-08-23 14:55:00
10:15 AM,87.8,66.2,49,30.04,10.0,North,-9999.0,-,N/A,,Clear,0,2013-08-23 15:15:00
10:35 AM,89.6,66.2,46,30.04,10.0,North,-9999.0,-,N/A,,Clear,0,2013-08-23 15:35:00
10:55 AM,91.4,64.4,41,30.04,10.0,North,-9999.0,-,N/A,,Clear,0,2013-08-23 15:55:00
11:15 AM,91.4,64.4,41,30.04,10.0,North,-9999.0,-,N/A,,Clear,0,2013-08-23 16:15:00
11:35 AM,93.2,64.4,38,30.03,10.0,North,-9999.0,-,N/A,,Clear,0,2013-08-23 16:35:00
11:55 AM,95.0,64.4,36,30.03,10.0,North,-9999.0,-,N/A,,Clear,0,2013-08-23 16:55:00
12:15 PM,93.2,62.6,36,30.02,10.0,North,-9999.0,-,N/A,,Clear,0,2013-08-23 17:15:00
12:35 PM,95.0,62.6,34,30.02,10.0,North,-9999.0,-,N/A,,Scattered Clouds,0,2013-08-23 17:35:00
12:55 PM,95.0,60.8,32,30.01,10.0,North,-9999.0,-,N/A,,Scattered Clouds,0,2013-08-23 17:55:00
1:15 PM,96.8,60.8,30,30.00,10.0,North,-9999.0,-,N/A,,Mostly Cloudy,0,2013-08-23 18:15:00
1:35 PM,96.8,60.8,30,30.00,10.0,North,-9999.0,-,N/A,,Scattered Clouds,0,2013-08-23 18:35:00
1:55 PM,96.8,60.8,30,29.99,10.0,North,-9999.0,-,N/A,,Scattered Clouds,0,2013-08-23 18:55:00
2:15 PM,96.8,60.8,30,29.98,10.0,North,-9999.0,-,N/A,,Scattered Clouds,0,2013-08-23 19:15:00
2:35 PM,96.8,60.8,30,29.98,10.0,North,-9999.0,-,N/A,,Mostly Cloudy,0,2013-08-23 19:35:00
2:55 PM,96.8,59.0,28,29.96,10.0,North,-9999.0,-,N/A,,Mostly Cloudy,0,2013-08-23 19:55:00
3:15 PM,98.6,59.0,27,29.95,10.0,North,-9999.0,-,N/A,,Scattered Clouds,0,2013-08-23 20:15:00
3:35 PM,98.6,59.0,27,29.94,10.0,North,-9999.0,-,N/A,,Scattered Clouds,0,2013-08-23 20:35:00
3:55 PM,98.6,59.0,27,29.94,10.0,North,-9999.0,-,N/A,,Mostly Cloudy,0,2013-08-23 20:55:00
4:15 PM,98.6,57.2,25,29.93,10.0,North,-9999.0,-,N/A,,Scattered Clouds,0,2013-08-23 21:15:00
4:35 PM,100.4,55.4,22,29.93,10.0,North,-9999.0,-,N/A,,Mostly Cloudy,0,2013-08-23 21:35:00
4:55 PM,100.4,55.4,22,29.92,10.0,North,-9999.0,-,N/A,,Scattered Clouds,0,2013-08-23 21:55:00
5:15 PM,100.4,53.6,21,29.92,10.0,North,-9999.0,-,N/A,,Scattered Clouds,0,2013-08-23 22:15:00
5:35 PM,98.6,55.4,24,29.92,10.0,North,-9999.0,-,N/A,,Mostly Cloudy,0,2013-08-23 22:35:00
5:55 PM,95.0,59.0,30,29.93,10.0,North,-9999.0,-,N/A,,Scattered Clouds,0,2013-08-23 22:55:00
6:15 PM,93.2,60.8,34,29.94,10.0,North,-9999.0,-,N/A,,Scattered Clouds,0,2013-08-23 23:15:00
6:35 PM,93.2,59.0,32,29.92,10.0,North,-9999.0,-,N/A,,Scattered Clouds,0,2013-08-23 23:35:00
6:55 PM,87.8,62.6,43,29.92,10.0,North,-9999.0,-,N/A,,Clear,0,2013-08-23 23:55:00
7:15 PM,87.8,62.6,43,29.93,10.0,North,-9999.0,-,N/A,,Clear,0,2013-08-24 00:15:00
7:35 PM,86.0,64.4,48,29.92,10.0,North,-9999.0,-,N/A,,Clear,0,2013-08-24 00:35:00
7:55 PM,84.2,64.4,51,29.93,10.0,North,-9999.0,-,N/A,,Scattered Clouds,0,2013-08-24 00:55:00
8:15 PM,82.4,64.4,54,29.94,10.0,North,-9999.0,-,N/A,,Scattered Clouds,0,2013-08-24 01:15:00
8:35 PM,84.2,64.4,51,29.94,10.0,North,-9999.0,-,N/A,,Clear,0,2013-08-24 01:35:00
8:55 PM,82.4,64.4,54,29.95,10.0,North,-9999.0,-,N/A,,Clear,0,2013-08-24 01:55:00
9:15 PM,82.4,64.4,54,29.96,10.0,North,-9999.0,-,N/A,,Clear,0,2013-08-24 02:15:00
9:35 PM,82.4,64.4,54,29.97,10.0,North,-9999.0,-,N/A,,Clear,0,2013-08-24 02:35:00
9:55 PM,82.4,64.4,54,29.98,10.0,North,-9999.0,-,N/A,,Scattered Clouds,0,2013-08-24 02:55:00
10:15 PM,82.4,64.4,54,29.98,10.0,North,-9999.0,-,N/A,,Scattered Clouds,0,2013-08-24 03:15:00
10:35 PM,84.2,64.4,51,29.99,10.0,North,-9999.0,-,N/A,,Mostly Cloudy,0,2013-08-24 03:35:00
10:55 PM,84.2,64.4,51,29.99,10.0,North,-9999.0,-,N/A,,Overcast,0,2013-08-24 03:55:00
11:15 PM,82.4,64.4,54,29.99,10.0,North,-9999.0,-,N/A,,Overcast,0,2013-08-24 04:15:00
11:35 PM,82.4,64.4,54,29.99,10.0,North,-9999.0,-,N/A,,Scattered Clouds,0,2013-08-24 04:35:00
11:55 PM,82.4,64.4,54,29.99,10.0,North,-9999.0,-,N/A,,Clear,0,2013-08-24 04:55:00